{"data":{"norad_id":67746,"epoch":"2026-05-25T02:03:19.653696Z","epoch_age_seconds":60960,"freshness":"FRESH","line1":"1 67746U 26027A   26145.08564414  .00005603  00000+0  27236-3 0  9993","line2":"2 67746  97.5030 273.4266 0008461 298.7960  61.2424 15.18803565 15452","mean_motion":15.18803565,"eccentricity":0.0008461,"inclination_deg":97.503,"raan_deg":273.4266,"arg_perigee_deg":298.796,"mean_anomaly_deg":61.2424,"bstar":0.00027236,"rev_number":1545,"period_min":94.811470896172,"perigee_km":503.62777535534,"apogee_km":515.28295915922,"semimajor_km":6887.5923672573,"source":"CELESTRAK","updated_at":"2026-05-25T13:38:07.229996Z"}}